Flag for Norway Weather past 2 weeks in Hammerfest, Norway

Now
36 °F

Clear.


Feels Like: 25 °F
Forecast: 33 / 38 °F
Wind: 20 mph from South

Location: Hammerfest

Current Time: Mar 30, 2015 at 1:00:24 AM

Latest Report: Mar 29, 2015 at 11:50 PM


Visibility: 10 mi

Pressure: 29.09 "Hg

Humidity: 75%

Dew point: 28 °F

Location of HammerfestLocation

Historic Weather in Hammerfest — Graph

°F

Hammerfest temperature yesterday

Maximum temperature yesterday: 36 °F (at 7:50 AM)
Minimum temperature yesterday: 27 °F (at 12:50 AM)
Average temperature yesterday: 33 °F

Past Weeks' High & Low Weather Summary

 TemperatureHumidityPressure
High46 °F (Mar 15, 7:50 PM)100% (Mar 19, 11:50 AM)30.69 "Hg (Mar 19, 11:50 AM)
Low16 °F (Mar 24, 3:50 AM)39% (Mar 16, 4:50 PM)29.09 "Hg (Mar 29, 9:50 PM)
Average30 °F71%29.89 "Hg
* Reported Mar 14 10:50 PM — Mar 29 11:50 PM, Hammerfest, Weather by CustomWeather, © 2015

Note: Actual official high and low records may vary slightly from our data, if they occured in-between our weather recording intervals... More about our weather records

Advertising

Hammerfest weather history for previous 24 hours

 ConditionsComfort  
Time TempWeatherWind HumidityBarometerVisibility
11:50 PM
Sun, Mar 29
36 °FClear.20 mph75%29.09 "Hg10 mi
10:50 PM36 °FClear.21 mph75%29.09 "Hg10 mi
9:50 PM34 °FPartly cloudy.23 mph75%29.09 "HgN/A
8:50 PM34 °FSnow flurries. Passing clouds.15 mph75%29.15 "Hg6 mi
7:50 PM34 °FBroken clouds.16 mph70%29.15 "HgN/A
6:50 PM34 °FBroken clouds.16 mph75%29.18 "HgN/A
5:50 PM34 °FBroken clouds.18 mph75%29.21 "HgN/A
4:50 PM36 °FPartly sunny.18 mph70%29.21 "HgN/A
3:50 PM36 °FPartly sunny.20 mph70%29.24 "HgN/A
2:50 PM36 °FBroken clouds.21 mph70%29.27 "HgN/A
1:50 PM34 °FPartly sunny.18 mph75%29.27 "HgN/A
12:50 PM34 °FPassing clouds.21 mph70%29.27 "HgN/A
11:50 AM34 °FPassing clouds.22 mph70%29.30 "HgN/A
10:50 AM34 °FPassing clouds.18 mph70%29.30 "HgN/A
9:50 AM34 °FSunny.24 mph70%29.30 "Hg10 mi
8:50 AM34 °FPassing clouds.21 mph65%N/AN/A
7:50 AM36 °FChilly.16 mph56%N/AN/A
6:50 AM30 °FPassing clouds.1 mph64%29.36 "HgN/A
5:50 AM28 °FChilly.6 mph69%29.42 "HgN/A
4:50 AM28 °FPassing clouds.1 mph64%29.42 "HgN/A
3:50 AM28 °FChilly.1 mph69%29.45 "HgN/A
1:50 AM28 °FChilly.No wind69%29.47 "HgN/A
Weather by CustomWeather, © 2015

See weather overviewHow to use our weather pages